Find CRRES

NORAD ID: 20712 Int'l Des: 1990-065 Owner: AFSSD2/MSFC Country: US operational
MEOELLIPTICALHEO_ELLIPTICAL

リアルタイム位置

3D地球を読み込み中...

CRRESについて

説明を読み込み中...

次回通過

Passes for default location (London). Set your location on the main map for personalized predictions.

高度履歴

Loading altitude history...

軌道要素

1 20712U 90065A 26105.62064984 -.00000505 00000-0 24203-3 0 9990
2 20712 18.1609 327.2824 7080518 236.3946 35.8352 2.49980280308143
Epoch: Apr 15, 2026 • Age: 53 hours

現在のステータス

高度 31797.7 km
速度 1.87 km/s
衛星直下点 16.63°N, 109.04°W
打ち上げ日 Jul 25, 1990
運用期間 35.7 years
タイプ other

技術仕様

分類 Payload
質量 1291.00 kg
乾燥質量 1291.00 kg
総質量 1716.00 kg
長さ 2.30 m
直径 2.60 m
スパン 100.00 m
形状 Oct Cyl + Ant
製造者 BALL
バスタイプ CRRES
フェーズステータス In Orbit
所有者/国 AFSSD2/MSFC/US

Most Searched